Location: ??????
(56.0120°N, 39.1740°E)
Time: 15:38:47
(UTC+00:00)

ATLAS 3B R/B - Pass Details

Date: 14 April 2026
Orbit: 937 x 1257 km, 63.8° (Epoch: 16 May)

Event Time Altitude Azimuth Distance (km) Brightness Sun altitude
Rises 23:32:34 0° 311° (NW) 4,217 5.9 -19.0°
Reaches altitude 10° 23:35:28 10° 307° (NW) 3,237 5.2 -18.8°
Maximum altitude 23:42:59 52° 235° (SW) 1,488 3.1 -18.2°
Drops below altitude 10° 23:50:07 10° 162° (SSE) 3,073 4.8 -17.6°
Sets 23:52:49 0° 157° (SSE) 3,988 5.4 -17.4°
